Other Public Products
Issued by NWS Grand Forks, ND

Home | Current Version | Previous Version | Graphics & Text | Print | Product List | Glossary On
Versions: 1 2 3 4 5 6 7 8 9 10 11 12 13 14 15 16 17 18 19 20 21 22 23 24 25 26 27 28 29 30 31 32 33 34 35 36 37 38 39 40 41 42 43 44 45 46 47 48 49 50
000
FPUS83 KFGF 250331
OPUFGF
PRAIRIE TO PINES WEATHER ROUNDUP
NATIONAL WEATHER SERVICE EASTERN NORTH DAKOTA/GRAND FORKS ND
1000 PM CDT FRI OCT 24 2014

 **SATELLITE DATA USED TO AUGMENT SKY COVER AT AUTOMATED STATIONS**
 *****  WEATHER ACROSS EASTERN NORTH DAKOTA  *****

CITY           SKY/WX    TMP DP  RH WIND       PRES   REMARKS
GRAND FORKS    PTCLDY    52  35  52 W8        29.87R
GRAND FORKS AF CLEAR     54  35  48 NW10      29.88R
GRAND CITY NWS   N/A     50 N/A N/A W13         N/A
BUXTON           N/A     48  31  52 W10         N/A
DEVILS LAKE    CLEAR     48  34  57 W13       29.92R
FARGO          PTCLDY    53  33  46 W8        29.90R
WAHPETON ARPT  MOCLDY    61  30  31 W12       29.94R
$$

 *****  WEATHER ACROSS CENTRAL AND WESTERN NORTH DAKOTA  *****

CITY           SKY/WX    TMP DP  RH WIND       PRES   REMARKS
JAMESTOWN      CLEAR     51  34  52 NW13      29.95R
BISMARCK       PTCLDY    49  33  54 W7        30.03R
MINOT          CLEAR     50  29  44 W13       29.97R
MINOT AFB      CLEAR     44  31  60 W10       29.97R
GARRISON         N/A     51  29  42 W13       29.99S
WILLISTON      CLEAR     44  27  51 W12       30.03R
DICKINSON      MOCLDY    46  31  55 W7        30.05R
HETTINGER      CLOUDY    47  35  63 W7        30.09R
$$

 *****  OTHER OBSERVATIONS NORTHEAST NORTH DAKOTA  *****

CITY           SKY/WX    TMP DP  RH WIND       PRES   REMARKS
WALHALLA       FAIR      52  32  46 W10G18    29.85R
LANGDON        FAIR      48  32  53 W16       29.87R
CAVALIER       FAIR      54  32  43 W15G22    29.84R
GRAFTON        FAIR      54  36  50 W15G21    29.86R
CANDO          FAIR      45  34  65 W12       29.93R
FORT TOTTEN      N/A     49  32  52 W7        29.95
ROLLA          FAIR      50  28  43 NW16G29   29.92R
RUGBY          FAIR      39  34  81 W12       29.95R
 ***** THE ABOVE OBSERVATIONS ARE NON NWS ARE NOT QUALITY
        CONTROLLED AND MAY MIS-REPORT RAIN FOR SNOW...
$$

 *****  OTHER OBSERVATIONS SOUTHEAST NORTH DAKOTA *****

CITY           SKY/WX    TMP DP  RH WIND       PRES   REMARKS
COOPERSTOWN    NOT AVBL
VALLEY CITY    FAIR      50  34  53 W13       29.95R
OAKES            N/A     50  39  66 W9        29.99R
GWINNER        PTCLDY    55  36  47 W9        29.98R
SHEYENNE NWR     N/A     57  35  43 W8        29.95
BUFFALO          N/A     51  27  39 W10         N/A
WYNDMERE         N/A     59  34  38 W8          N/A
 ***** THE ABOVE OBSERVATIONS ARE NON NWS ARE NOT QUALITY
       CONTROLLED AND MAY MIS-REPORT RAIN FOR SNOW...
$$

  *****  WEATHER ACROSS NORTHERN MINNESOTA  *****

CITY           SKY/WX    TMP DP  RH WIND       PRES   REMARKS
FLAG ISLAND    CLEAR     55  34  44 W15G22    29.71R
WARROAD        CLEAR     52  39  62 SW10G16   29.77R
ROSEAU         CLEAR     55  36  47 W14G22    29.78R
HALLOCK        PTCLDY    48  36  61 W13       29.82R
THF RVR FALLS  MOCLDY    54  34  47 W13       29.85R
HALSTAD          N/A     49  27  41 W12         N/A
FOSSTON        PTCLDY    54  34  47 W13       29.87R
BAUDETTE       CLEAR     56  35  45 VRB5      29.74R
WASKISH        PTCLDY    54  43  66 W14       29.79R
CROOKSTON      PTCLDY    48  34  57 W8        29.88R
$$
  *****  WEATHER ACROSS CENTRAL AND WEST MINNESOTA  *****

CITY           SKY/WX    TMP DP  RH WIND       PRES   REMARKS
BEMIDJI        MOCLDY    57  32  38 W16G23    29.83R
PARK RAPIDS    CLEAR     58  31  35 NW18      29.85R
WADENA         PTCLDY    59  36  41 W8G16     29.88R
DETROIT LAKES  PTCLDY    55  32  41 NW12      29.91R
MOORHEAD       MOCLDY    59  25  27 W9        29.92R
FERGUS FALLS   CLOUDY    61  28  29 NW15      29.93R
ELBOW LAKE     MOCLDY    59  35  41 NW13      29.92R
MORRIS MN      PTCLDY    55  43  62 NW10      29.92R
STAPLES        CLEAR     59  34  38 W12       29.87R
WHEATON        PTCLDY    57  37  47 W8        29.97R
$$
  *****  WEATHER ELSEWHERE ACROSS MINNESOTA  *****

CITY           SKY/WX    TMP DP  RH WIND       PRES   REMARKS
DULUTH         MOCLDY    57  45  64 W13       29.74F
INTRNTL FALLS  CLEAR     57  35  43 W13       29.72R
ELY            PTCLDY    59  37  44 W12G18    29.71R
CLOQUET        CLOUDY    57  45  62 W9        29.77S
BRAINERD       PTCLDY    61  41  47 W8        29.84R
HIBBING        MOCLDY    61  38  42 W13G21    29.75R
ALEXANDRIA     PTCLDY    61  39  44 NW14      29.91R
SAINT CLOUD    CLEAR     58  43  57 W10       29.85R
MINNEAPOLIS    PTCLDY    59  51  75 SW3       29.86R
$$

  *****  WEATHER ACROSS SOUTH DAKOTA  *****

CITY           SKY/WX    TMP DP  RH WIND       PRES   REMARKS
SIOUX FALLS    CLEAR     54  43  66 S3        29.96S
BROOKINGS      NOT AVBL
WATERTOWN      CLEAR     56  41  57 W7        29.96R
HURON          PTCLDY    50  37  61 NW6       29.98R
SISSETON         N/A     58  37  45 N9        29.94R
ABERDEEN       MOCLDY    62  37  39 NW13      29.99R
MITCHELL       CLEAR     57  39  51 W7        30.00R
PIERRE         PTCLDY    56  39  53 N9        30.02R
MOBRIDGE       CLOUDY    56  37  49 N8        30.01S
RAPID CITY     CLEAR     46  35  65 NW10      30.11R
$$

  *****  SOME WEATHER IN NEARBY STATES *****

CITY           SKY/WX    TMP DP  RH WIND       PRES   REMARKS
GLASGOW MT     PTCLDY    41  28  60 SE3       30.05R
GREAT FALLS MT CLOUDY    47  38  71 CALM      30.06F
CHEYENNE WY    CLEAR     56  28  34 W13       30.23S
SCOTTSBLUFF NE CLEAR     55  32  41 SW5       30.09R
OMAHA NE       CLEAR     57  55  93 CALM      29.99R
DES MOINES IA  FOG       59  58  96 SW5       29.96R VSB 3/4
DAVENPORT IA   MOCLDY    56  54  93 W7        29.95F FOG
CHICAGO IL     CLOUDY    61  46  57 W8        29.94S
EAU CLAIRE WI  FOG       52  51  97 SW3       29.86S VSB 1/4
LA CROSSE WI   MOCLDY    58  55  90 S7        29.89S
$$

  *****  SOME NATIONAL WEATHER *****

CITY           SKY/WX    TMP DP  RH WIND       PRES   REMARKS
LA GUARDIA NY  PTCLDY    60  43  53 NW12      29.83R
RALEIGH NC     PTCLDY    49  46  90 CALM      30.00S
ATLANTA GA     PTCLDY    58  43  57 NW6       30.04S
NEW ORLEANS LA CLEAR     65  51  60 N3        30.10R
OKLAHOMA CITY  CLEAR     67  60  78 S7        30.06R
ALBUQUERQUE NM CLEAR     65  34  31 CALM      30.26R
SALT LAKE CITY CLEAR     56  39  53 S5        30.08S
LOS ANGELES CA CLEAR     69  67  93 W7        29.95R
BOISE ID       MOCLDY    54  49  83 CALM      29.95F
SEATTLE WA     LGT RAIN  54  47  77 E10       29.86F
$$

*** WEATHER ACROSS MANITOBA...SASKATCHEWAN AND ONTARIO ***
                ***ONTARIO***

CITY           SKY/WX    TMP DP  RH WIND       PRES   REMARKS
GERALDTON      LGT RAIN  46  45  93 SW9       29.55F FOG
THUNDER BAY    CLOUDY    45  45 100 VRB2      29.59F
SIOUX LOOKOUT  PTCLDY    55  39  54 W14G23    29.56R
TORONTO        MOCLDY    52  43  71 NW2       29.93F
BIG TROUT LK   LGT RAIN  48  46  93 SW6       29.29F
PICKLE LAKE    NOT AVBL
DRYDEN         CLEAR     55  37  50 W20G30    29.61R
KENORA         PTCLDY    54  34  47 W9        29.67R
$$
                *** MANITOBA***

CITY           SKY/WX    TMP DP  RH WIND       PRES   REMARKS
BRANDON        CLEAR     46  32  57 W15       29.87R
DAUPHIN        CLEAR     46  34  61 W18       29.81R
ISLAND LAKE    LGT RAIN  45  43  93 NW15G26   29.44R
PILOT MOUND      N/A     50  34  53 W13G21      N/A
THE PAS        CLOUDY    45  34  65 W22G29    29.65
THOMPSON       LGT RAIN  39  37  93 W10       29.46
WINNIPEG       CLEAR     52  34  50 W21G29    29.77R
LYNN LAKE      CLOUDY    36  32  87 W13G28    29.47R
CHURCHILL      FOG       37  37 100 N2        29.37F VSB 1/2
GILLAM         LGT RAIN  43  43 100 W9        29.36F
$$
                ***SASKATCHEWAN***

CITY           SKY/WX    TMP DP  RH WIND       PRES   REMARKS
ESTEVAN        CLEAR     43  30  61 W13       29.98R
KINDERSLEY     PTCLDY    36  27  69 SW3       29.98R
LLOYDMINSTER   CLEAR     34  25  69 W13       29.91R WCI  25
PRINCE ALBERT  PTCLDY    41  28  60 W12       29.84R
REGINA         PTCLDY    36  32  87 W10       29.97R



USA.gov is the U.S. government's official web portal to all federal, state and local government web resources and services.